When you browse on this site, cookies collect data to enhance your experience and personalize the content and advertising you see.
Visit our Privacy Policy to learn more. By continuing to use the site, you agree to this use of cookies and data.
  • în România
  • Lista ţărilor
  • Pe 7 zile
  • Temperatura apei
  • Hartă satelitară
  • Meteo pe hartă
  • Widget-uri
  • user-avatar
    Intrare

    Meteo pe oră la Lethem

    Astăzi, 22 Ianuarie, Marţi

    Timp Temperatura Precipitaţii Vânt Presiune Umiditate
    00:00 +29°C° 0 mm 4 m/s 752 mmHg 63%
    01:00 +28°C° 0 mm 5 m/s 752 mmHg 65%
    02:00 +28°C° 0 mm 5 m/s 752 mmHg 67%
    03:00 +27°C° 0 mm 5 m/s 752 mmHg 69%
    04:00 +27°C° 0 mm 4 m/s 752 mmHg 71%
    05:00 +26°C° 0 mm 4 m/s 752 mmHg 73%
    06:00 +27°C° 0 mm 5 m/s 752 mmHg 71%
    07:00 +28°C° 0 mm 5 m/s 753 mmHg 68%
    08:00 +28°C° 0 mm 5 m/s 753 mmHg 66%
    09:00 +30°C° 0 mm 5 m/s 753 mmHg 59%
    10:00 +33°C° 0 mm 5 m/s 753 mmHg 52%
    11:00 +35°C° 0 mm 5 m/s 754 mmHg 44%
    12:00 +36°C° 0 mm 5 m/s 753 mmHg 41%
    13:00 +37°C° 0 mm 5 m/s 752 mmHg 38%
    14:00 +39°C° 0 mm 5 m/s 751 mmHg 34%
    15:00 +39°C° 0 mm 5 m/s 750 mmHg 35%
    16:00 +39°C° 0 mm 5 m/s 749 mmHg 35%
    17:00 +37°C° 0 mm 5 m/s 749 mmHg 35%
    18:00 +36°C° 0 mm 5 m/s 749 mmHg 40%
    19:00 +34°C° 0 mm 5 m/s 750 mmHg 45%
    20:00 +33°C° 0 mm 5 m/s 750 mmHg 49%
    21:00 +32°C° 0 mm 5 m/s 751 mmHg 53%
    22:00 +30°C° 0 mm 5 m/s 751 mmHg 57%
    23:00 +29°C° 0 mm 5 m/s 752 mmHg 60%

    Mâine, 23 Ianuarie, Miercuri

    Timp Temperatura Precipitaţii Vânt Presiune Umiditate
    00:00 +29°C° 0 mm 5 m/s 752 mmHg 62%
    01:00 +28°C° 0 mm 5 m/s 752 mmHg 63%
    02:00 +27°C° 0 mm 5 m/s 751 mmHg 65%
    03:00 +27°C° 0 mm 5 m/s 751 mmHg 67%
    04:00 +26°C° 0 mm 5 m/s 751 mmHg 70%
    05:00 +25°C° 0 mm 5 m/s 751 mmHg 73%
    06:00 +26°C° 0 mm 5 m/s 752 mmHg 70%
    07:00 +27°C° 0 mm 5 m/s 752 mmHg 67%
    08:00 +28°C° 0 mm 6 m/s 753 mmHg 65%
    09:00 +30°C° 0 mm 6 m/s 753 mmHg 56%
    10:00 +33°C° 0 mm 6 m/s 753 mmHg 48%
    11:00 +35°C° 0 mm 6 m/s 753 mmHg 40%
    12:00 +36°C° 0 mm 6 m/s 752 mmHg 36%
    13:00 +37°C° 0 mm 5 m/s 751 mmHg 32%
    14:00 +40°C° 0 mm 5 m/s 750 mmHg 29%
    15:00 +39°C° 0 mm 5 m/s 749 mmHg 29%
    16:00 +39°C° 0 mm 6 m/s 749 mmHg 30%
    17:00 +38°C° 0 mm 6 m/s 748 mmHg 31%
    18:00 +36°C° 0 mm 6 m/s 749 mmHg 35%
    19:00 +34°C° 0 mm 5 m/s 749 mmHg 40%
    20:00 +33°C° 0 mm 5 m/s 750 mmHg 44%
    21:00 +32°C° 0 mm 5 m/s 751 mmHg 48%
    22:00 +30°C° 0 mm 5 m/s 751 mmHg 52%
    23:00 +29°C° 0 mm 5 m/s 752 mmHg 56%

    Poimâine, 24 Ianuarie, Joi

    Timp Temperatura Precipitaţii Vânt Presiune Umiditate
    00:00 +29°C° 0 mm 5 m/s 752 mmHg 60%
    01:00 +28°C° 0 mm 5 m/s 751 mmHg 64%
    02:00 +27°C° 0 mm 5 m/s 751 mmHg 67%
    03:00 +26°C° 0 mm 5 m/s 751 mmHg 69%
    04:00 +26°C° 0 mm 5 m/s 751 mmHg 71%
    05:00 +26°C° 0 mm 4 m/s 751 mmHg 73%
    06:00 +26°C° 0 mm 5 m/s 751 mmHg 70%
    07:00 +27°C° 0 mm 5 m/s 752 mmHg 66%
    08:00 +28°C° 0 mm 5 m/s 752 mmHg 63%
    09:00 +30°C° 0 mm 5 m/s 752 mmHg 55%
    10:00 +33°C° 0 mm 5 m/s 752 mmHg 48%
    11:00 +36°C° 0 mm 5 m/s 752 mmHg 40%
    12:00 +37°C° 0 mm 5 m/s 751 mmHg 37%
    13:00 +38°C° 0 mm 4 m/s 750 mmHg 34%
    14:00 +40°C° 0 mm 4 m/s 749 mmHg 31%
    15:00 +39°C° 0 mm 5 m/s 749 mmHg 33%
    16:00 +39°C° 0 mm 5 m/s 748 mmHg 34%
    17:00 +38°C° 0 mm 6 m/s 748 mmHg 36%
    18:00 +35°C° 0 mm 6 m/s 748 mmHg 41%
    19:00 +33°C° 0 mm 6 m/s 749 mmHg 47%
    20:00 +32°C° 0 mm 6 m/s 750 mmHg 52%
    21:00 +30°C° 0 mm 6 m/s 751 mmHg 55%
    22:00 +29°C° 0 mm 6 m/s 751 mmHg 58%
    23:00 +28°C° 0 mm 5 m/s 752 mmHg 61%

    25 Ianuarie, Vineri

    Timp Temperatura Precipitaţii Vânt Presiune Umiditate
    00:00 +28°C° 0 mm 5 m/s 751 mmHg 63%
    01:00 +27°C° 0 mm 5 m/s 751 mmHg 65%
    02:00 +27°C° 0 mm 5 m/s 751 mmHg 68%
    03:00 +26°C° 0 mm 5 m/s 751 mmHg 69%
    04:00 +26°C° 0 mm 5 m/s 751 mmHg 70%
    05:00 +25°C° 0 mm 5 m/s 751 mmHg 71%
    06:00 +26°C° 0 mm 5 m/s 751 mmHg 68%
    07:00 +27°C° 0 mm 5 m/s 752 mmHg 64%
    08:00 +28°C° 0 mm 5 m/s 752 mmHg 61%
    09:00 +30°C° 0 mm 5 m/s 752 mmHg 53%
    10:00 +33°C° 0 mm 4 m/s 752 mmHg 45%
    11:00 +35°C° 0 mm 4 m/s 752 mmHg 38%
    12:00 +36°C° 0 mm 4 m/s 751 mmHg 35%
    13:00 +38°C° 0 mm 4 m/s 750 mmHg 33%
    14:00 +40°C° 0 mm 4 m/s 748 mmHg 30%
    15:00 +38°C° 0 mm 4 m/s 748 mmHg 31%
    16:00 +38°C° 0 mm 4 m/s 747 mmHg 32%
    17:00 +39°C° 0 mm 5 m/s 747 mmHg 33%
    18:00 +36°C° 0 mm 5 m/s 747 mmHg 37%
    19:00 +34°C° 0 mm 5 m/s 748 mmHg 41%
    20:00 +33°C° 0 mm 5 m/s 748 mmHg 45%
    21:00 +32°C° 0 mm 5 m/s 749 mmHg 49%
    22:00 +30°C° 0 mm 5 m/s 750 mmHg 53%
    23:00 +29°C° 0 mm 5 m/s 750 mmHg 56%

    26 Ianuarie, Sâmbătă

    Timp Temperatura Precipitaţii Vânt Presiune Umiditate
    00:00 +29°C° 0 mm 5 m/s 750 mmHg 61%
    01:00 +28°C° 0 mm 5 m/s 750 mmHg 65%
    02:00 +27°C° 0 mm 5 m/s 750 mmHg 69%
    03:00 +26°C° 0 mm 5 m/s 750 mmHg 70%
    04:00 +26°C° 0 mm 5 m/s 750 mmHg 71%
    05:00 +26°C° 0 mm 5 m/s 750 mmHg 72%
    06:00 +26°C° 0 mm 5 m/s 751 mmHg 69%
    07:00 +27°C° 0 mm 5 m/s 751 mmHg 66%
    08:00 +27°C° 0 mm 5 m/s 752 mmHg 64%
    09:00 +30°C° 0 mm 5 m/s 752 mmHg 55%
    10:00 +33°C° 0 mm 5 m/s 752 mmHg 47%
    11:00 +35°C° 0 mm 5 m/s 752 mmHg 39%
    12:00 +36°C° 0 mm 5 m/s 751 mmHg 35%
    13:00 +38°C° 0 mm 4 m/s 749 mmHg 32%
    14:00 +40°C° 0 mm 4 m/s 748 mmHg 29%
    15:00 +40°C° 0 mm 4 m/s 748 mmHg 29%
    16:00 +38°C° 0 mm 4 m/s 747 mmHg 29%
    17:00 +38°C° 0 mm 4 m/s 746 mmHg 29%
    18:00 +37°C° 0 mm 4 m/s 747 mmHg 32%
    19:00 +35°C° 0 mm 4 m/s 748 mmHg 36%
    20:00 +33°C° 0 mm 4 m/s 748 mmHg 40%
    21:00 +33°C° 0 mm 4 m/s 748 mmHg 44%
    22:00 +32°C° 0 mm 5 m/s 749 mmHg 48%
    23:00 +30°C° 0 mm 5 m/s 749 mmHg 52%

    27 Ianuarie, Duminică

    Timp Temperatura Precipitaţii Vânt Presiune Umiditate
    00:00 +29°C° 0 mm 5 m/s 749 mmHg 56%
    01:00 +28°C° 0 mm 5 m/s 749 mmHg 61%
    02:00 +28°C° 0 mm 5 m/s 749 mmHg 65%
    03:00 +27°C° 0 mm 5 m/s 749 mmHg 69%
    04:00 +26°C° 0 mm 5 m/s 749 mmHg 73%
    05:00 +26°C° 0 mm 5 m/s 749 mmHg 77%
    06:00 +26°C° 0 mm 6 m/s 750 mmHg 74%
    07:00 +27°C° 0 mm 6 m/s 751 mmHg 71%
    08:00 +28°C° 0 mm 6 m/s 751 mmHg 68%
    09:00 +30°C° 0 mm 6 m/s 751 mmHg 60%
    10:00 +33°C° 0 mm 6 m/s 751 mmHg 53%
    11:00 +35°C° 0 mm 6 m/s 751 mmHg 46%
    12:00 +36°C° 0 mm 5 m/s 750 mmHg 42%
    13:00 +39°C° 0 mm 5 m/s 749 mmHg 38%
    14:00 +40°C° 0 mm 4 m/s 748 mmHg 34%
    15:00 +40°C° 0 mm 4 m/s 747 mmHg 34%
    16:00 +40°C° 0 mm 4 m/s 747 mmHg 34%
    17:00 +38°C° 0 mm 4 m/s 746 mmHg 34%
    18:00 +37°C° 0 mm 4 m/s 747 mmHg 39%
    19:00 +35°C° 0 mm 4 m/s 748 mmHg 44%
    20:00 +34°C° 0 mm 4 m/s 748 mmHg 49%
    21:00 +33°C° 0 mm 5 m/s 749 mmHg 53%
    22:00 +32°C° 0 mm 5 m/s 749 mmHg 57%
    23:00 +30°C° 0 mm 5 m/s 750 mmHg 61%
    Arată mai mult